Regional Weather Roundup
Issued by NWS

Home | Current Version | Previous Version | Text Only | Print | Product List | Glossary Off
Versions: 1 2 3 4 5 6 7 8 9 10 11 12 13 14 15 16 17 18 19 20 21 22 23 24 25 26 27 28 29 30 31 32 33 34 35 36 37 38 39 40 41 42 43 44 45 46 47 48 49 50

000
ASUS43 KDMX 280301
RWRIA

WEATHER ROUNDUP FOR IOWA
NATIONAL WEATHER SERVICE DES MOINES IA
1000 PM CDT TUE JUN 27 2017

NOTE: "FAIR" INDICATES FEW OR NO CLOUDS BELOW 12,000 FEET WITH NO
SIGNIFICANT WEATHER AND/OR OBSTRUCTIONS TO VISIBILITY.

* - THESE STATIONS ARE NOT NWS STATIONS...THUS NOT UNDER NWS
QUALITY CONTROL.  THEY ALSO DO NOT REPORT WEATHER SUCH
AS PRECIPITATION OR FOG.

IAZ001>003-012>014-020>022-031>034-043>046-280400-
   NORTHWEST IOWA

CITY           SKY/WX    TMP DP  RH WIND       PRES   REMARKS
CARROLL *      CLOUDY    72  61  68 S15G24    29.83R
CHEROKEE *     CLOUDY    73  61  65 S14G20    29.77S
DENISON *      CLOUDY    72  63  73 S17G24    29.81F
LE MARS *      PTCLDY    73  63  68 S12G21    29.74R
ORANGE CITY *  PTCLDY    72  63  73 S15G21    29.74F
SHELDON *      CLOUDY    73  61  64 S16G25    29.74S
SIOUX CITY     CLOUDY    75  65  70 S20G28    29.73F
SPENCER        CLOUDY    73  59  61 S17       29.79R
STORM LAKE *   MOCLDY    72  61  68 S17G24    29.80S
$$

IAZ055>058-069>071-079>083-090>094-280400-
   SOUTHWEST IOWA

CITY           SKY/WX    TMP DP  RH WIND       PRES   REMARKS
ATLANTIC *     CLOUDY    73  63  68 S8G17     29.84R
AUDUBON *      CLOUDY    72  63  73 S9        29.85S
CLARINDA *       N/A     73  64  73 S9        29.86S
COUNCIL BLFS * CLOUDY    73  66  78 SE16G24   29.80S
CRESTON *      CLEAR     70  61  73 SE13      29.89S
HARLAN  *      CLOUDY    73  63  68 SE13G22   29.85F
LAMONI         PTCLDY    71  61  70 SE8       29.90S
RED OAK *      CLOUDY    73  64  73 SE8G16    29.84R
SHENANDOAH *   CLOUDY    73  66  78 SE8       29.83R
$$

IAZ047>049-059>061-072>074-084-280400-
   CENTRAL IOWA

CITY           SKY/WX    TMP DP  RH WIND       PRES   REMARKS
AMES           CLOUDY    70  57  63 SE10      29.88R
ANKENY *       CLOUDY    72  57  60 SE9       29.90R
BOONE *        CLOUDY    72  55  56 S13       29.86S
CHARITON *     CLOUDY    72  57  60 SE9       29.91R
DES MOINES     CLOUDY    74  56  53 SE12      29.89R
GRINNELL*      PTCLDY    67  51  56 SE9       29.93S
KNOXVILLE *    CLOUDY    70  54  56 SE9G16    29.89F
MARSHALLTOWN   PTCLDY    68  52  56 SE10      29.90R
NEWTON *       CLOUDY    68  54  60 S9        29.91S
PELLA *        PTCLDY    70  53  54 SE9       29.91F
PERRY *        MOCLDY    73  56  55 SE13      29.86S
$$

IAZ004>006-015-016-023>025-035-036-280400-
   NORTH CENTRAL IOWA

CITY           SKY/WX    TMP DP  RH WIND       PRES   REMARKS
ALGONA *       CLOUDY    70  54  56 SE16G24   29.82F
CLARION *        N/A     68  52  56 SE16      29.85F
ESTHERVILLE    CLOUDY    69  54  58 SE16      29.79F
FORT DODGE *   MOCLDY    72  54  53 SE8       29.85S
MASON CITY     CLEAR     65  48  54 SE8       29.90R
FOREST CITY *    N/A     64  43  45 SE9       29.86F
WEBSTER CITY * MOCLDY    70  54  56 SE14      29.84S
IOWA FALLS *     N/A     67  52  57 SE8       29.90R
$$

IAZ007>011-017>019-026>030-037>042-050>054-066-280400-
   NORTHEAST IOWA

CITY           SKY/WX    TMP DP  RH WIND       PRES   REMARKS
CEDAR RAPIDS   PTCLDY    64  51  62 S6        29.94R
CHARLES CITY * PTCLDY    64  46  52 SE8       29.92R
CLINTON *      CLEAR     63  49  60 SE8       29.99R
DECORAH *      PTCLDY    63  48  59 S6        29.93R
DUBUQUE        CLEAR     61  47  59 S12       29.97S
MONTICELLO *   PTCLDY    61  48  63 SE7       29.95S
OELWEIN *      PTCLDY    63  48  59 SE8       29.94R
WATERLOO       CLEAR     67  47  48 S9        29.90S
$$

IAZ064-065-067-068-078-280400-
   EAST CENTRAL IOWA

CITY           SKY/WX    TMP DP  RH WIND       PRES   REMARKS
IOWA CITY      PTCLDY    66  51  58 SE6       29.96S
MT. PLEASANT * CLEAR     63  50  63 SE7       29.97R
MUSCATINE *    CLOUDY    64  52  63 SE5       29.96F
QUAD CITIES    CLEAR     63  50  62 SE6       29.98R
$$

IAZ062-063-075>077-085>089-095>099-280400-
   SOUTHEAST IOWA

CITY           SKY/WX    TMP DP  RH WIND       PRES   REMARKS
BURLINGTON     CLEAR     68  55  63 SE8       29.98R
FAIRFIELD *    CLEAR     68  50  52 SE12      29.95S
FORT MADISON * CLEAR     70  52  52 SE8       29.99R
KEOKUK *       CLEAR     70  52  52 SE8G14    29.97S
OSKALOOSA *      N/A     65  52  62 SE7       29.93S
OTTUMWA        PTCLDY    68  51  54 SE9       29.93S
WASHINGTON *   PTCLDY    64  52  63 SE6       29.97R
$$

ABBREVIATIONS USED IN REMARKS
   TC - TEMPERATURES IN CELSIUS
  WCI - WIND CHILL INDEX
   HX - HEAT INDEX
  VSB - VISIBILITY
$$





USA.gov is the U.S. government's official web portal to all federal, state and local government web resources and services.